Weather History for KUES - November, 2011

Change the Weather History Date:

Wednesday, November 30, 2011

  Actual Average Record
Temperature  
Mean Temperature 29 °F -  
Max Temperature 39 °F 39 °F 64 °F (1998)
Min Temperature 19 °F 24 °F -2 °F (1976)
Degree Days  
Heating Degree Days 36    
Moisture  
Dew Point 17 °F    
Average Humidity 63    
Maximum Humidity 86    
Minimum Humidity 31    
Precipitation  
Precipitation 0.00 in - - ()
Sea Level Pressure  
Sea Level Pressure 30.04 in    
Wind  
Wind Speed 10 mph (West)    
Max Wind Speed 14 mph    
Max Gust Speed 18 mph    
Visibility 10 miles    
Events      
Averages and records for this station are not official NWS values.
T = Trace of Precipitation, MM = Missing Value Source: NWS Daily Summary

Daily Weather History Graph

Daily Weather History Graph

Search for Another Location

Airport or City:

Trip Planner

Search our weather history database for the weather conditions in past years. The results will help you decide how hot, cold, wet, or windy it might be!

Date:

Astronomy

Nov. 30, 2011 Rise Set
Actual Time 7:03 AM CST 4:19 PM CST
Civil Twilight 6:31 AM CST 4:51 PM CST
Nautical Twilight 5:56 AM CST 5:26 PM CST
Astronomical Twilight 5:22 AM CST 6:00 PM CST
Moon 11:16 AM CST (11/30) 10:21 PM CST (11/30)
Length of Visible Light 10h 19m
Length of Day
9h 16m
Waxing Crescent, 34% of the Moon is Illuminated
Nov 30
Waxing Crescent
Dec 2
First Quarter
Dec 10
Full
Dec 17
Last Quarter
Dec 24
New

Hourly Weather History & Observations

Time (CST) Temp. Windchill Dew Point Humidity Pressure Visibility Wind Dir Wind Speed Gust Speed Precip Events Conditions
12:15 AM 26.6 °F 16.2 °F 19.4 °F 74% 29.98 in 10.0 mi NW 11.5 mph - N/A   Clear
12:35 AM 24.8 °F 14.0 °F 19.4 °F 80% 29.98 in 10.0 mi NW 11.5 mph - N/A   Clear
12:55 AM 26.6 °F 15.2 °F 19.4 °F 74% 29.98 in 10.0 mi NW 13.8 mph 18.4 mph N/A   Clear
1:15 AM 24.8 °F 13.4 °F 19.4 °F 80% 29.98 in 10.0 mi NW 12.7 mph - N/A   Clear
1:35 AM 24.8 °F 14.6 °F 19.4 °F 80% 29.98 in 10.0 mi NW 10.4 mph - N/A   Clear
1:55 AM 24.8 °F 12.9 °F 19.4 °F 80% 29.98 in 10.0 mi WNW 13.8 mph 18.4 mph N/A   Clear
2:35 AM 23.0 °F 12.4 °F 19.4 °F 86% 29.98 in 10.0 mi NW 10.4 mph 16.1 mph N/A   Clear
2:55 AM 23.0 °F 11.1 °F 19.4 °F 86% 29.98 in 10.0 mi NW 12.7 mph - N/A   Clear
3:15 AM 23.0 °F 12.4 °F 19.4 °F 86% 29.98 in 10.0 mi NW 10.4 mph - N/A   Clear
3:35 AM 23.0 °F 13.1 °F 19.4 °F 86% 29.98 in 10.0 mi NW 9.2 mph - N/A   Clear
3:55 AM 23.0 °F 13.1 °F 19.4 °F 86% 29.98 in 10.0 mi NW 9.2 mph - N/A   Clear
4:15 AM 23.0 °F 12.4 °F 17.6 °F 80% 29.99 in 10.0 mi WNW 10.4 mph - N/A   Clear
4:35 AM 23.0 °F 13.9 °F 17.6 °F 80% 29.99 in 10.0 mi WNW 8.1 mph - N/A   Clear
5:45 AM 21.2 °F 12.6 °F 17.6 °F 86% 30.01 in 10.0 mi WNW 6.9 mph - N/A   Clear
6:45 AM 19.4 °F 10.4 °F 15.8 °F 86% 30.01 in 10.0 mi WNW 6.9 mph - N/A   Clear
7:45 AM 21.2 °F 9.5 °F 17.6 °F 86% 30.03 in 10.0 mi WNW 11.5 mph - N/A   Clear
8:45 AM 24.8 °F 14.6 °F 17.6 °F 74% 30.05 in 10.0 mi WNW 10.4 mph - N/A   Clear
9:45 AM 28.4 °F 20.4 °F 17.6 °F 64% 30.04 in 10.0 mi WNW 8.1 mph - N/A   Clear
10:45 AM 32.0 °F 23.6 °F 17.6 °F 55% 30.05 in 10.0 mi West 10.4 mph - N/A   Clear
11:45 AM 35.6 °F 29.2 °F 14.0 °F 41% 30.03 in 10.0 mi West 8.1 mph - N/A   Clear
12:45 PM 37.4 °F 31.4 °F 10.4 °F 33% 30.02 in 10.0 mi West 8.1 mph - N/A   Clear
1:45 PM 39.2 °F 33.0 °F 10.4 °F 31% 30.00 in 10.0 mi WSW 9.2 mph - N/A   Clear
2:45 PM 39.2 °F 33.6 °F 12.2 °F 33% 30.01 in 10.0 mi WSW 8.1 mph - N/A   Clear
3:45 PM 37.4 °F 33.8 °F 10.4 °F 33% 30.03 in 10.0 mi WSW 4.6 mph - N/A   Clear
4:45 PM 37.4 °F 32.1 °F 12.2 °F 36% 30.05 in 10.0 mi SW 6.9 mph - N/A   Clear
5:45 PM 35.6 °F 29.9 °F 14.0 °F 41% 30.05 in 10.0 mi SSW 6.9 mph - N/A   Clear
6:45 PM 33.8 °F 26.4 °F 15.8 °F 48% 30.06 in 10.0 mi SSW 9.2 mph - N/A   Clear
7:45 PM 33.8 °F 26.4 °F 15.8 °F 48% 30.07 in 10.0 mi SSW 9.2 mph - N/A   Clear
8:15 PM 32.0 °F 26.4 °F 17.6 °F 55% 30.08 in 10.0 mi SSW 5.8 mph - N/A   Clear
8:35 PM 33.8 °F 26.4 °F 17.6 °F 52% 30.08 in 10.0 mi SSW 9.2 mph - N/A   Clear
8:55 PM 32.0 °F 25.6 °F 17.6 °F 55% 30.08 in 10.0 mi SSW 6.9 mph - N/A   Clear
9:15 PM 32.0 °F 24.2 °F 17.6 °F 55% 30.09 in 10.0 mi SSW 9.2 mph - N/A   Clear
9:35 PM 32.0 °F 27.5 °F 17.6 °F 55% 30.09 in 10.0 mi SW 4.6 mph - N/A   Clear
9:55 PM 32.0 °F 27.5 °F 17.6 °F 55% 30.09 in 10.0 mi SW 4.6 mph - N/A   Scattered Clouds
10:15 PM 32.0 °F 26.4 °F 17.6 °F 55% 30.10 in 10.0 mi SW 5.8 mph - N/A   Scattered Clouds
10:35 PM 32.0 °F 26.4 °F 19.4 °F 60% 30.11 in 10.0 mi SW 5.8 mph - N/A   Scattered Clouds
10:55 PM 32.0 °F 26.4 °F 19.4 °F 60% 30.11 in 10.0 mi SW 5.8 mph - N/A   Mostly Cloudy
11:15 PM 32.0 °F 28.7 °F 17.6 °F 55% 30.12 in 10.0 mi WSW 3.5 mph - N/A   Scattered Clouds
11:35 PM 32.0 °F - 17.6 °F 55% 30.12 in 10.0 mi Calm Calm - N/A   Clear
11:55 PM 32.0 °F 28.7 °F 19.4 °F 60% 30.12 in 10.0 mi SW 3.5 mph - N/A   Mostly Cloudy